星链-11655 (STARLINK-11655)

导读

STARLINK-11655是美国于2025年4月28日发射的星链卫星,隶属于SpaceX公司打造的星链星座项目。该星座旨在为全球用户提供低延迟、高速率的宽带互联网覆盖,尤其服务偏远地区、移动场景等传统网络覆盖薄弱区域。作为星链低轨星座扩容的一员,它进一步完善了星座组网规模,提升了全球卫星互联网服务的覆盖密度与容量。

基本信息
目录编号:
63675
目录名称:
STARLINK-11655
国际标识:
2025-085M
轨道中心:
EARTH
卫星名称:
星链-11655
卫星全名:
星链-11655 (STARLINK-11655)
卫星状态:
在轨 (已飞行495 天)
发射日期:
2025-04-28 UTC
国别 :
美国 (US)
星等 :
--
轨道信息
数据来源 国际轨道数据
星历时间: 2026-09-05T10:50:24+0800
8小时前
查看轨道信息
半长轴: 6734.544km
偏心率: 0.0001141
轨道倾角: 43.000°
近地点辐角 268.292°
升交点赤经 276.669°
平近点角 91.782°
近地点: 355.638km
远地点: 357.176km
周期: 91.669分钟
每日圈数: 15.708711
详细信息
固有亮度:
5
最大亮度:
2.5
卫星平台:
Starlink V1.0
覆盖范围:
全球
运营商:
太空探索技术公司
运营商所在国:
美国
制造商(研发单位):
太空探索技术公司
制造商所在国:
美国
使用方式:
暂无
卫星简介
Starlink 计划是 SpaceX 推出的全球卫星互联网项目,通过发射低轨道卫星,为全球尤其是偏远地区提供高速、低延迟的互联网服务。自 2019 年起,Starlink 已部署数千颗卫星,旨在缩小全球数字鸿沟,推动互联网普及。该项目还为军事、航空等行业提供通信支持,带来广泛经济效益。
2D轨道图
3D轨道图
轨道高度分析图
轨道倾角分析图
轨道综合分析图
查看轨道综合分析图